GW1430 Weather Reports


Display with metric or nautical units.
time (UTC)temp
F
wind
direction
speed
MPH
gust
MPH
rain 1hr
in
rain 24hr
in
rain mn
in
humidity
%
barometer
mb
20260506051037 77 211 3.0 0.0 0.00 0.00 0.00 86 1008.0
20260506050536 77 130 2.0 0.0 0.00 0.00 0.00 86 1007.9
20260506045033 77 149 3.0 0.0 0.00 0.00 0.00 86 1007.9
20260506044546 77 196 3.0 0.0 0.00 0.00 0.00 86 1007.9
20260506044032 77 190 2.0 0.0 0.00 0.00 0.00 86 1008.0
20260506043533 77 184 2.0 0.0 0.00 0.00 0.00 86 1008.0
20260506043033 77 100 3.0 0.0 0.00 0.00 0.00 86 1007.9
20260506042532 77 128 2.0 0.0 0.00 0.00 0.00 86 1007.9
20260506042032 77 114 2.0 0.0 0.00 0.00 0.00 85 1007.7
20260506041535 77 141 3.0 0.0 0.00 0.00 0.00 85 1007.7
20260506041032 77 101 3.0 0.0 0.00 0.00 0.00 85 1007.7
20260506040532 77 179 3.0 0.0 0.00 0.00 0.00 85 1007.6
20260506040034 77 119 3.0 0.0 0.00 0.00 0.00 85 1007.5
20260506035532 77 156 3.0 0.0 0.00 0.00 0.00 85 1007.5
20260506035031 78 174 2.0 0.0 0.00 0.00 0.00 84 1007.3
20260506034531 78 73 2.0 0.0 0.00 0.00 0.00 84 1007.3
20260506034030 78 91 2.0 0.0 0.00 0.00 0.00 84 1007.3
20260506033530 78 208 2.0 0.0 0.00 0.00 0.00 84 1007.3
20260506033030 78 163 2.0 0.0 0.00 0.00 0.00 84 1007.3
20260506032530 78 217 2.0 0.0 0.00 0.00 0.00 84 1007.2
20260506032031 78 246 2.0 0.0 0.00 0.00 0.00 84 1007.2
20260506031534 78 250 3.0 0.0 0.00 0.00 0.00 84 1007.0
20260506031029 78 173 2.0 0.0 0.00 0.00 0.00 83 1007.0
20260506030529 78 234 2.0 0.0 0.00 0.00 0.00 83 1007.0
20260506030030 79 133 3.0 0.0 0.00 0.00 0.00 83 1006.9
20260506025532 79 144 3.0 0.0 0.00 0.00 0.00 82 1006.8
20260506025029 79 195 3.0 0.0 0.00 0.00 0.00 82 1006.7
20260506024534 79 161 3.0 0.0 0.00 0.00 0.00 82 1006.7
20260506024029 79 136 2.0 0.0 0.00 0.00 0.00 81 1006.6
20260506023529 79 173 3.0 0.0 0.00 0.00 0.00 81 1006.4
20260506023028 79 185 3.0 0.0 0.00 0.00 0.00 80 1006.3
20260506022528 80 113 3.0 0.0 0.00 0.00 0.00 80 1006.2
20260506022028 80 96 2.0 0.0 0.00 0.00 0.00 79 1006.1
20260506021528 80 169 2.0 0.0 0.00 0.00 0.00 79 1005.9
20260506021028 80 155 2.0 0.0 0.00 0.00 0.00 79 1005.9
20260506020530 80 168 2.0 0.0 0.00 0.00 0.00 78 1005.8
20260506020028 80 215 1.0 0.0 0.00 0.00 0.00 78 1005.8
20260506015527 80 178 2.0 0.0 0.00 0.00 0.00 78 1005.7
20260506015027 81 129 2.0 0.0 0.00 0.00 0.00 78 1005.7
20260506014528 81 101 2.0 0.0 0.00 0.00 0.00 77 1005.6
20260506014026 81 161 2.0 0.0 0.00 0.00 0.00 77 1005.7
20260506013526 81 234 2.0 0.0 0.00 0.00 0.00 77 1005.7
20260506013027 81 110 1.0 0.0 0.00 0.00 0.00 77 1005.6
20260506012528 81 88 1.0 0.0 0.00 0.00 0.00 76 1005.6
20260506012027 81 151 1.0 0.0 0.00 0.00 0.00 76 1005.6
20260506011528 81 134 1.0 0.0 0.00 0.00 0.00 76 1005.6
20260506011027 82 159 1.0 0.0 0.00 0.00 0.00 75 1005.7
20260506010526 82 154 1.0 0.0 0.00 0.00 0.00 75 1005.7
20260506010026 82 112 1.0 0.0 0.00 0.00 0.00 75 1005.7
20260506005526 82 218 1.0 0.0 0.00 0.00 0.00 74 1005.6
20260506005027 83 150 1.0 0.0 0.00 0.00 0.00 74 1005.6
20260506004529 83 217 1.0 0.0 0.00 0.00 0.00 74 1005.7
20260506004024 83 106 1.0 0.0 0.00 0.00 0.00 74 1005.6
20260506003525 83 227 2.0 0.0 0.00 0.00 0.00 74 1005.5
20260506003025 83 80 2.0 0.0 0.00 0.00 0.00 73 1005.5
20260506002524 83 132 1.0 0.0 0.00 0.00 0.00 73 1005.5
20260506002024 84 175 2.0 0.0 0.00 0.00 0.00 73 1005.5
20260506001524 84 178 2.0 0.0 0.00 0.00 0.00 72 1005.5
20260506001024 84 174 2.0 0.0 0.00 0.00 0.00 72 1005.4
20260506000524 84 206 2.0 0.0 0.00 0.00 0.00 72 1005.4
20260506000023 84 221 2.0 0.0 0.00 0.00 0.00 72 1005.3
20260505235522 84 193 2.0 0.0 0.00 0.00 0.00 72 1005.3
20260505235023 84 105 2.0 0.0 0.00 0.00 0.00 72 1005.2
20260505234548 84 131 2.0 0.0 0.00 0.00 0.00 72 1005.2
20260505234020 84 103 2.0 0.0 0.00 0.00 0.00 71 1005.1
20260505233520 84 9 2.0 0.0 0.00 0.00 0.00 71 1005.1
20260505233021 84 132 2.0 0.0 0.00 0.00 0.00 70 1005.1
20260505232520 84 134 2.0 0.0 0.00 0.00 0.00 70 1005.1
20260505232020 84 94 2.0 0.0 0.00 0.00 0.00 70 1005.1
20260505231520 84 257 2.0 0.0 0.00 0.00 0.00 71 1005.2
20260505231019 84 138 3.0 0.0 0.00 0.00 0.00 71 1005.2
20260505230519 85 142 3.0 0.0 0.00 0.00 0.00 71 1005.1
20260505230019 85 154 4.0 0.0 0.00 0.00 0.00 70 1005.0
20260505225519 85 197 3.0 0.0 0.00 0.00 0.00 69 1004.9
20260505225019 85 134 3.0 0.0 0.00 0.00 0.00 70 1005.0
20260505224527 85 149 3.0 0.0 0.00 0.00 0.00 69 1004.9
20260505224019 86 190 3.0 0.0 0.00 0.00 0.00 69 1004.9
20260505223518 86 165 3.0 0.0 0.00 0.00 0.00 69 1004.9
20260505223019 86 184 3.0 0.0 0.00 0.00 0.00 69 1004.9
20260505222518 86 232 3.0 0.0 0.00 0.00 0.00 69 1004.9
20260505222018 86 93 4.0 0.0 0.00 0.00 0.00 68 1004.9
20260505221517 86 142 3.0 0.0 0.00 0.00 0.00 68 1004.9
20260505221016 86 171 3.0 0.0 0.00 0.00 0.00 69 1005.1
20260505220515 86 194 3.0 0.0 0.00 0.00 0.00 67 1005.0
20260505220015 86 92 4.0 0.0 0.00 0.00 0.00 68 1005.1
20260505215516 87 207 4.0 0.0 0.00 0.00 0.00 67 1005.1
20260505215014 87 263 3.0 0.0 0.00 0.00 0.00 67 1005.4
20260505214519 87 153 3.0 0.0 0.00 0.00 0.00 65 1005.4
20260505214013 87 229 4.0 0.0 0.00 0.00 0.00 66 1005.5
20260505213516 86 148 5.0 0.0 0.00 0.00 0.00 69 1005.5
20260505213013 86 171 5.0 0.0 0.00 0.00 0.00 67 1005.6
20260505212514 86 182 4.0 0.0 0.00 0.00 0.00 67 1005.8
20260505212012 87 253 4.0 0.0 0.00 0.00 0.00 65 1005.6
20260505211512 87 74 5.0 0.0 0.00 0.00 0.00 67 1005.5
20260505211012 88 204 5.0 0.0 0.00 0.00 0.00 65 1005.6
20260505210514 87 195 4.0 0.0 0.00 0.00 0.00 66 1005.7
20260505210011 86 192 4.0 0.0 0.00 0.00 0.00 68 1005.7
20260505205509 86 81 5.0 0.0 0.00 0.00 0.00 67 1005.8
20260505205006 86 203 4.0 0.0 0.00 0.00 0.00 70 1005.8
20260505204505 85 176 3.0 0.0 0.00 0.00 0.00 70 1006.0
20260505204004 85 199 3.0 0.0 0.00 0.00 0.00 70 1006.0
20260505203503 84 211 3.0 0.0 0.00 0.00 0.00 72 1006.3
20260505203002 84 159 3.0 0.0 0.00 0.00 0.00 72 1006.4
20260505202501 84 221 3.0 0.0 0.00 0.00 0.00 71 1006.6
20260505202001 84 183 4.0 0.0 0.00 0.00 0.00 70 1006.6
20260505201609 84 136 4.0 0.0 0.00 0.00 0.00 72 1006.6
20260505201102 83 186 4.0 0.0 0.00 0.00 0.00 71 1006.7
20260505200600 83 215 4.0 0.0 0.00 0.00 0.00 72 1006.7
20260505200106 83 205 3.0 0.0 0.00 0.00 0.00 72 1006.7
20260505195600 83 188 3.0 0.0 0.00 0.00 0.00 73 1006.9
20260505195058 83 144 3.0 0.0 0.00 0.00 0.00 71 1006.9
20260505194607 83 199 3.0 0.0 0.00 0.00 0.00 72 1007.0
20260505194058 83 152 4.0 0.0 0.00 0.00 0.00 72 1007.0
20260505193557 83 128 4.0 0.0 0.00 0.00 0.00 72 1007.0
20260505193058 83 160 4.0 0.0 0.00 0.00 0.00 72 1007.1
20260505192559 84 246 3.0 0.0 0.00 0.00 0.00 72 1007.2
20260505192100 84 88 3.0 0.0 0.00 0.00 0.00 73 1007.2
20260505191557 83 179 4.0 0.0 0.00 0.00 0.00 72 1007.2
20260505191054 83 218 4.0 0.0 0.00 0.00 0.00 73 1007.1
20260505190554 83 190 4.0 0.0 0.00 0.00 0.00 74 1007.2
20260505190059 82 219 3.0 0.0 0.00 0.00 0.00 75 1007.2
20260505185552 82 161 4.0 0.0 0.00 0.00 0.00 74 1007.3
20260505185053 82 180 4.0 0.0 0.00 0.00 0.00 73 1007.3
20260505184552 82 200 3.0 0.0 0.00 0.00 0.00 75 1007.4
20260505184050 82 142 3.0 0.0 0.00 0.00 0.00 75 1007.5
20260505183548 81 210 4.0 0.0 0.00 0.00 0.00 76 1007.7
20260505183052 81 288 4.0 0.0 0.00 0.00 0.00 76 1007.7
20260505182548 81 252 3.0 0.0 0.00 0.00 0.00 75 1007.8
20260505182047 80 211 4.0 0.0 0.00 0.00 0.00 77 1007.9
20260505181548 80 177 4.0 0.0 0.00 0.00 0.00 77 1007.9
20260505181050 80 227 4.0 0.0 0.00 0.00 0.00 76 1008.0
20260505180549 80 159 3.0 0.0 0.00 0.00 0.00 78 1007.9
20260505180044 79 271 3.0 0.0 0.00 0.00 0.00 79 1008.1
20260505175543 79 206 3.0 0.0 0.00 0.00 0.00 79 1008.2
20260505175043 79 250 4.0 0.0 0.00 0.00 0.00 79 1008.3
20260505174546 78 211 4.0 0.0 0.00 0.00 0.00 79 1008.3
20260505174040 78 241 4.0 0.0 0.00 0.00 0.00 80 1008.3
20260505173543 78 180 4.0 0.0 0.00 0.00 0.00 80 1008.3
20260505173045 77 199 3.0 0.0 0.00 0.00 0.00 81 1008.4
20260505172539 77 159 3.0 0.0 0.00 0.00 0.00 82 1008.5
20260505172037 77 248 3.0 0.0 0.00 0.00 0.00 81 1008.5
20260505171537 77 245 4.0 0.0 0.00 0.00 0.00 82 1008.5
20260505171037 77 221 4.0 0.0 0.00 0.00 0.00 82 1008.5
20260505170536 76 153 4.0 0.0 0.00 0.00 0.00 82 1008.5
20260505170037 76 204 4.0 0.0 0.00 0.00 0.00 82 1008.6
20260505165535 76 194 4.0 0.0 0.00 0.00 0.00 82 1008.5
20260505165033 76 165 4.0 0.0 0.00 0.00 0.00 83 1008.5
20260505164533 76 167 3.0 0.0 0.00 0.00 0.00 83 1008.5
20260505164032 75 213 3.0 0.0 0.00 0.00 0.00 84 1008.5
20260505163532 75 237 3.0 0.0 0.00 0.00 0.00 84 1008.5
20260505163031 75 156 4.0 0.0 0.00 0.00 0.00 84 1008.5
20260505162530 75 137 4.0 0.0 0.00 0.00 0.00 85 1008.5
20260505162029 75 128 4.0 0.0 0.00 0.00 0.00 85 1008.5
20260505161529 74 215 4.0 0.0 0.00 0.00 0.00 85 1008.5
20260505161028 74 180 3.0 0.0 0.00 0.00 0.00 86 1008.6
20260505160527 74 155 4.0 0.0 0.00 0.00 0.00 86 1008.5
20260505153024 73 252 3.0 0.0 0.00 0.00 0.00 87 1008.7
20260505152523 73 201 3.0 0.0 0.00 0.00 0.00 87 1008.6
20260505152022 73 153 4.0 0.0 0.00 0.00 0.00 87 1008.6
20260505151522 73 173 3.0 0.0 0.00 0.00 0.00 87 1008.5
20260505151022 73 163 4.0 0.0 0.00 0.00 0.00 87 1008.4
20260505150522 73 232 4.0 0.0 0.00 0.00 0.00 87 1008.3
20260505140520 72 190 4.0 0.0 0.00 0.00 0.00 87 1008.1
20260505125015 71 202 3.0 0.0 0.00 0.00 0.00 88 1007.4
20260505124516 71 248 3.0 0.0 0.00 0.00 0.00 88 1007.3
20260505124016 71 196 4.0 0.0 0.00 0.00 0.00 88 1007.3
20260505123518 71 219 5.0 0.0 0.00 0.00 0.00 88 1007.3
20260505123014 71 219 5.0 0.0 0.00 0.00 0.00 88 1007.2
20260505122514 71 229 3.0 0.0 0.00 0.00 0.00 88 1007.2
20260505122018 71 110 2.0 0.0 0.00 0.00 0.00 88 1007.0
20260505121514 71 153 3.0 0.0 0.00 0.00 0.00 88 1007.0
20260505121014 71 221 5.0 0.0 0.00 0.00 0.00 88 1007.0
20260505120515 71 184 4.0 0.0 0.00 0.00 0.00 87 1007.0
20260505120013 71 215 4.0 0.0 0.00 0.00 0.00 87 1006.9
20260505115513 71 225 4.0 0.0 0.00 0.00 0.00 87 1006.9
20260505115013 71 173 4.0 0.0 0.00 0.00 0.00 87 1006.9
20260505114512 71 209 5.0 0.0 0.00 0.00 0.00 87 1006.9
20260505114013 71 124 4.0 0.0 0.00 0.00 0.00 87 1006.9
20260505113514 71 184 4.0 0.0 0.00 0.00 0.00 87 1006.8
20260505113011 71 72 4.0 0.0 0.00 0.00 0.00 87 1007.0
20260505112511 71 242 5.0 0.0 0.00 0.00 0.00 87 1006.8
20260505112011 71 182 4.0 0.0 0.00 0.00 0.00 87 1006.8
20260505111511 71 198 4.0 0.0 0.00 0.00 0.00 87 1006.8
20260505111014 71 205 4.0 0.0 0.00 0.00 0.00 87 1007.0
20260505110509 71 143 5.0 0.0 0.00 0.00 0.00 87 1007.1
20260505102008 71 202 4.0 0.0 0.00 0.00 0.00 86 1007.2
20260505101511 71 175 4.0 0.0 0.00 0.00 0.00 86 1007.2
20260505101005 71 164 4.0 0.0 0.00 0.00 0.00 86 1007.3
20260505100506 71 179 4.0 0.0 0.00 0.00 0.00 86 1007.2
20260505100006 71 224 4.0 0.0 0.00 0.00 0.00 86 1007.3
20260505095505 71 203 4.0 0.0 0.00 0.00 0.00 86 1007.0
20260505095006 71 210 5.0 0.0 0.00 0.00 0.00 85 1007.0
20260505094512 71 204 4.0 0.0 0.00 0.00 0.00 85 1007.1
20260505094003 71 267 4.0 0.0 0.00 0.00 0.00 85 1007.2
20260505093503 71 146 5.0 0.0 0.00 0.00 0.00 85 1007.3
20260505093003 71 128 4.0 0.0 0.00 0.00 0.00 85 1007.3
20260505092504 71 177 4.0 0.0 0.00 0.00 0.00 85 1007.5
20260505092003 71 169 4.0 0.0 0.00 0.00 0.00 85 1007.1
20260505091501 71 220 4.0 0.0 0.00 0.00 0.00 85 1007.1
20260505091001 71 224 4.0 0.0 0.00 0.00 0.00 85 1007.2
20260505090502 71 161 4.0 0.0 0.00 0.00 0.00 85 1007.3
20260505090001 71 195 4.0 0.0 0.00 0.00 0.00 85 1007.3
20260505085601 71 205 4.0 0.0 0.00 0.00 0.00 85 1007.4
20260505085101 71 113 5.0 0.0 0.00 0.00 0.00 85 1007.3
20260505084600 71 202 5.0 0.0 0.00 0.00 0.00 85 1007.3
20260505084100 71 195 5.0 0.0 0.00 0.00 0.00 85 1007.2
20260505083558 71 161 5.0 0.0 0.00 0.00 0.00 85 1007.4
20260505083058 71 182 5.0 0.0 0.00 0.00 0.00 85 1007.5
20260505082556 71 172 6.0 0.0 0.00 0.00 0.00 85 1007.6
20260505082056 71 153 5.0 0.0 0.00 0.00 0.00 85 1007.8
20260505081557 71 192 4.0 0.0 0.00 0.00 0.00 85 1007.8
20260505081055 71 192 4.0 0.0 0.00 0.00 0.00 85 1007.7
20260505080553 71 205 4.0 0.0 0.00 0.00 0.00 85 1007.9
20260505080104 71 148 4.0 0.0 0.00 0.00 0.00 85 1007.9
20260505075553 71 184 4.0 0.0 0.00 0.00 0.00 85 1008.0
20260505075052 71 173 4.0 0.0 0.00 0.00 0.00 85 1008.1
20260505074552 71 229 4.0 0.0 0.00 0.00 0.00 85 1008.2
20260505074052 71 179 4.0 0.0 0.00 0.00 0.00 85 1008.2
20260505073552 71 190 3.0 0.0 0.00 0.00 0.00 85 1008.2
20260505073054 71 139 4.0 0.0 0.00 0.00 0.00 85 1008.2
20260505072550 71 182 4.0 0.0 0.00 0.00 0.00 85 1008.3
20260505072049 71 218 3.0 0.0 0.00 0.00 0.00 85 1008.2
20260505071549 71 188 3.0 0.0 0.00 0.00 0.00 85 1008.4
20260505071050 71 132 4.0 0.0 0.00 0.00 0.00 85 1008.4
20260505070548 71 134 3.0 0.0 0.00 0.00 0.00 85 1008.6
20260505070053 71 157 3.0 0.0 0.00 0.00 0.00 85 1008.6
20260505065547 71 197 4.0 0.0 0.00 0.00 0.00 84 1008.7
20260505065046 71 212 5.0 0.0 0.00 0.00 0.00 85 1008.7
20260505064546 71 144 5.0 0.0 0.00 0.00 0.00 84 1008.7
20260505064045 72 190 4.0 0.0 0.00 0.00 0.00 84 1008.8
20260505063545 71 121 3.0 0.0 0.00 0.00 0.00 84 1008.8
20260505063106 72 209 4.0 0.0 0.00 0.00 0.00 84 1008.9
20260505062546 71 138 5.0 0.0 0.00 0.00 0.00 84 1008.9
20260505062042 72 141 4.0 0.0 0.00 0.00 0.00 84 1009.1
20260505061544 72 205 5.0 0.0 0.00 0.00 0.00 84 1009.0
20260505061044 72 207 5.0 0.0 0.00 0.00 0.00 84 1009.0
20260505060540 72 154 3.0 0.0 0.00 0.00 0.00 84 1009.1
20260505060040 72 148 3.0 0.0 0.00 0.00 0.00 84 1009.1
20260505055539 72 119 4.0 0.0 0.00 0.00 0.00 84 1009.0